Location: Silverdale
(47.6506°N, 122.6941°W)
Time: 16:23:52
(UTC+00:00)

Transit 2A - Pass Details

Date: 15 October 2022
Orbit: 598 x 959 km, 66.7° (Epoch: 30 November)

Event Time Altitude Azimuth Distance (km) Brightness Sun altitude
Exits shadow 12:33:11 15° 328° (NNW) 1,795 7.7 -20.4°
Maximum altitude 12:37:09 81° 55° (NE) 730 5.9 -19.7°
Drops below altitude 10° 12:42:25 10° 143° (SE) 2,313 8.8 -18.8°
Sets 12:44:57 0° 144° (SE) 3,298 9.7 -18.4°
